ICOR SV

operational
NORAD ID: 68127 Int'l Des: 2026-046A Country: USA
LEOCIRCULARRETROGRADE
追跡 地上

ICOR SVについて

説明を読み込み中...

リアルタイム位置

3D地球を読み込み中...

次回通過

高度履歴

Altitude vs Time

uPlot chart will show altitude changes over time

軌道要素

1 68127U 26046A 26072.90953491 .00482503 92133-4 10434-2 0 9997
2 68127 123.0797 224.1306 0140888 188.2572 171.6170 15.82606913 290
Epoch: Mar 13, 2026 • Age: 30 hours

現在のステータス

高度 247.8 km
速度 7.80 km/s
衛星直下点 23.11°N, 159.08°E
タイプ other

大規模コンステレーション

Loading constellations...